TimeEST,TemperatureF,Dew PointF,Humidity,Sea Level PressureIn,VisibilityMPH,Wind Direction,Wind SpeedMPH,Gust SpeedMPH,PrecipitationIn,Events,Conditions,WindDirDegrees,DateUTC
12:15 AM,-2.2,-14.8,55,30.18,10.0,West,8.1,-,N/A,,Clear,260,2013-01-23 05:15:00
12:34 AM,-2.2,-14.8,55,30.18,10.0,West,9.2,-,N/A,,Clear,260,2013-01-23 05:34:00
12:55 AM,-2.2,-14.8,55,30.17,10.0,West,9.2,-,N/A,,Clear,260,2013-01-23 05:55:00
1:14 AM,-2.2,-14.8,55,30.17,10.0,West,8.1,-,N/A,,Clear,260,2013-01-23 06:14:00
1:35 AM,-2.2,-14.8,55,30.17,10.0,West,10.4,16.1,N/A,,Clear,270,2013-01-23 06:35:00
1:55 AM,-2.2,-14.8,55,30.16,10.0,West,13.8,19.6,N/A,,Clear,270,2013-01-23 06:55:00
2:14 AM,-2.2,-14.8,55,30.16,10.0,West,12.7,19.6,N/A,,Clear,270,2013-01-23 07:14:00
2:35 AM,-2.2,-14.8,55,30.16,10.0,West,11.5,18.4,N/A,,Clear,260,2013-01-23 07:35:00
2:55 AM,-2.2,-14.8,55,30.16,10.0,West,11.5,16.1,N/A,,Scattered Clouds,260,2013-01-23 07:55:00
3:14 AM,-2.2,-14.8,55,30.15,10.0,West,10.4,18.4,N/A,,Clear,270,2013-01-23 08:14:00
3:35 AM,-2.2,-14.8,55,30.15,10.0,West,9.2,-,N/A,,Scattered Clouds,260,2013-01-23 08:35:00
3:54 AM,-2.2,-14.8,55,30.14,10.0,West,10.4,16.1,N/A,,Overcast,270,2013-01-23 08:54:00
4:15 AM,-2.2,-14.8,55,30.13,10.0,West,10.4,16.1,N/A,,Overcast,270,2013-01-23 09:15:00
4:34 AM,-2.2,-14.8,55,30.13,10.0,West,12.7,-,N/A,,Mostly Cloudy,270,2013-01-23 09:34:00
4:55 AM,-2.2,-14.8,55,30.12,10.0,West,12.7,16.1,N/A,,Scattered Clouds,270,2013-01-23 09:55:00
5:15 AM,-2.2,-14.8,55,30.12,10.0,West,13.8,-,N/A,,Clear,280,2013-01-23 10:15:00
5:34 AM,-4.0,-14.8,60,30.12,10.0,West,12.7,-,N/A,,Clear,280,2013-01-23 10:34:00
5:55 AM,-4.0,-14.8,60,30.12,10.0,West,11.5,-,N/A,,Clear,280,2013-01-23 10:55:00
6:14 AM,-4.0,-14.8,60,30.11,10.0,West,9.2,-,N/A,,Mostly Cloudy,280,2013-01-23 11:14:00
6:35 AM,-4.0,-14.8,60,30.11,10.0,West,9.2,-,N/A,,Overcast,270,2013-01-23 11:35:00
6:55 AM,-4.0,-14.8,60,30.10,10.0,West,6.9,-,N/A,,Mostly Cloudy,270,2013-01-23 11:55:00
7:14 AM,-4.0,-14.8,60,30.09,10.0,West,8.1,-,N/A,,Scattered Clouds,270,2013-01-23 12:14:00
7:35 AM,-4.0,-14.8,60,30.10,10.0,WNW,8.1,-,N/A,,Scattered Clouds,290,2013-01-23 12:35:00
7:54 AM,-4.0,-14.8,60,30.09,10.0,West,8.1,-,N/A,,Scattered Clouds,270,2013-01-23 12:54:00
8:15 AM,-4.0,-14.8,60,30.09,10.0,West,10.4,-,N/A,,Scattered Clouds,270,2013-01-23 13:15:00
8:35 AM,-4.0,-13.0,65,30.09,10.0,West,8.1,-,N/A,,Mostly Cloudy,280,2013-01-23 13:35:00
8:55 AM,-4.0,-13.0,65,30.09,10.0,West,9.2,-,N/A,,Overcast,280,2013-01-23 13:55:00
9:14 AM,-4.0,-13.0,65,30.09,10.0,West,8.1,-,N/A,,Overcast,270,2013-01-23 14:14:00
9:35 AM,-2.2,-13.0,60,30.08,10.0,West,9.2,-,N/A,,Overcast,280,2013-01-23 14:35:00
9:54 AM,-2.2,-13.0,60,30.08,10.0,West,9.2,-,N/A,,Overcast,280,2013-01-23 14:54:00
10:15 AM,-2.2,-11.2,66,30.08,10.0,West,9.2,-,N/A,,Mostly Cloudy,280,2013-01-23 15:15:00
10:35 AM,-0.4,-11.2,60,30.08,10.0,WNW,10.4,-,N/A,,Mostly Cloudy,290,2013-01-23 15:35:00
10:54 AM,-0.4,-11.2,60,30.08,10.0,WNW,10.4,-,N/A,,Mostly Cloudy,290,2013-01-23 15:54:00
11:15 AM,-0.4,-11.2,60,30.07,10.0,West,6.9,-,N/A,,Scattered Clouds,280,2013-01-23 16:15:00
11:34 AM,1.4,-11.2,56,30.07,10.0,WNW,5.8,-,N/A,,Mostly Cloudy,300,2013-01-23 16:34:00
11:55 AM,1.4,-9.4,61,30.06,10.0,WNW,3.5,-,N/A,,Overcast,290,2013-01-23 16:55:00
12:14 PM,3.2,-9.4,56,30.06,10.0,West,4.6,-,N/A,,Mostly Cloudy,280,2013-01-23 17:14:00
12:35 PM,5.0,-9.4,52,30.04,10.0,West,4.6,-,N/A,,Scattered Clouds,270,2013-01-23 17:35:00
12:55 PM,6.8,-9.4,48,30.03,10.0,Calm,Calm,-,N/A,,Scattered Clouds,0,2013-01-23 17:55:00
1:14 PM,8.6,-7.6,48,30.02,10.0,Calm,Calm,-,N/A,,Scattered Clouds,0,2013-01-23 18:14:00
1:35 PM,8.6,-7.6,48,30.01,10.0,SSW,3.5,-,N/A,,Clear,210,2013-01-23 18:35:00
1:54 PM,8.6,-9.4,44,30.00,10.0,West,5.8,-,N/A,,Clear,280,2013-01-23 18:54:00
2:15 PM,8.6,-9.4,44,30.00,10.0,Calm,Calm,-,N/A,,Scattered Clouds,0,2013-01-23 19:15:00
2:35 PM,8.6,-9.4,44,30.00,10.0,WSW,4.6,-,N/A,,Scattered Clouds,240,2013-01-23 19:35:00
2:54 PM,8.6,-9.4,44,30.00,10.0,WSW,5.8,-,N/A,,Scattered Clouds,250,2013-01-23 19:54:00
3:15 PM,8.6,-9.4,44,30.00,10.0,West,4.6,-,N/A,,Mostly Cloudy,260,2013-01-23 20:15:00
3:34 PM,8.6,-9.4,44,30.01,10.0,West,5.8,-,N/A,,Overcast,270,2013-01-23 20:34:00
3:55 PM,8.6,-7.6,48,30.01,10.0,West,4.6,-,N/A,,Overcast,270,2013-01-23 20:55:00
4:15 PM,8.6,-7.6,48,30.01,10.0,West,6.9,-,N/A,,Overcast,280,2013-01-23 21:15:00
4:34 PM,8.6,-7.6,48,30.02,10.0,West,5.8,-,N/A,,Overcast,270,2013-01-23 21:34:00
4:55 PM,10.4,-7.6,44,30.02,10.0,West,6.9,-,N/A,,Overcast,280,2013-01-23 21:55:00
5:15 PM,10.4,-5.8,48,30.03,10.0,West,8.1,-,N/A,,Overcast,280,2013-01-23 22:15:00
5:35 PM,10.4,-5.8,48,30.04,10.0,West,6.9,-,N/A,,Overcast,280,2013-01-23 22:35:00
5:54 PM,10.4,-5.8,48,30.04,10.0,West,5.8,-,N/A,,Overcast,270,2013-01-23 22:54:00
6:15 PM,10.4,-4.0,52,30.05,10.0,West,4.6,-,N/A,,Overcast,260,2013-01-23 23:15:00
6:35 PM,10.4,-2.2,57,30.05,10.0,West,6.9,-,N/A,,Overcast,270,2013-01-23 23:35:00
6:54 PM,10.4,-0.4,62,30.05,10.0,West,9.2,-,N/A,,Mostly Cloudy,270,2013-01-23 23:54:00
7:15 PM,10.4,-0.4,62,30.05,10.0,West,13.8,18.4,N/A,,Scattered Clouds,280,2013-01-24 00:15:00
7:35 PM,10.4,3.2,73,30.05,1.5,West,17.3,20.7,N/A,Snow,Light Snow,280,2013-01-24 00:35:00
7:54 PM,10.4,5.0,79,30.06,1.0,West,17.3,-,N/A,Snow,Light Snow,280,2013-01-24 00:54:00
8:15 PM,10.4,6.8,85,30.07,1.5,NW,16.1,25.3,N/A,Snow,Light Snow,310,2013-01-24 01:15:00
8:34 PM,12.2,6.8,79,30.09,2.0,NNW,18.4,27.6,N/A,Snow,Light Snow,340,2013-01-24 01:34:00
8:55 PM,12.2,3.2,67,30.12,3.0,North,16.1,25.3,N/A,Snow,Light Snow,350,2013-01-24 01:55:00
9:15 PM,10.4,3.2,73,30.15,4.0,North,16.1,24.2,N/A,Snow,Light Snow,360,2013-01-24 02:15:00
9:34 PM,10.4,5.0,79,30.17,2.0,North,13.8,25.3,N/A,Snow,Light Snow,10,2013-01-24 02:34:00
9:55 PM,10.4,5.0,79,30.19,3.0,North,13.8,18.4,N/A,Snow,Light Snow,10,2013-01-24 02:55:00
10:14 PM,10.4,5.0,79,30.20,2.5,North,12.7,-,N/A,Snow,Light Snow,10,2013-01-24 03:14:00
10:34 PM,10.4,6.8,85,30.22,1.2,North,11.5,-,N/A,Snow,Light Snow,10,2013-01-24 03:34:00
10:54 PM,10.4,6.8,85,30.23,1.2,North,6.9,-,N/A,Snow,Light Snow,350,2013-01-24 03:54:00
11:15 PM,10.4,6.8,85,30.24,1.0,North,8.1,-,N/A,Snow,Snow,350,2013-01-24 04:15:00
11:34 PM,10.4,6.8,85,30.25,3.0,North,6.9,-,N/A,Snow,Light Snow,10,2013-01-24 04:34:00
11:55 PM,10.4,5.0,79,30.27,10.0,NNW,6.9,-,N/A,Snow,Light Snow,340,2013-01-24 04:55:00